Flag for Guyana Weather past 2 weeks in Linden, Guyana

Now
77 °F

Clear.


Feels Like: 78 °F
Forecast: 71 / 84 °F
Wind: 7 mph from Northeast

Location: Georgetown/Cheddi Jagan International Airport

Current Time: Dec 19, 2014 at 9:09:52 PM

Latest Report: Dec 19, 2014 at 8:00 PM


Visibility: 10 mi

Pressure: 29.86 "Hg

Humidity: 89%

Dew point: 73 °F

Location of LindenLocation

Historic Weather in Linden — Graph

°F

Linden temperature yesterday

Maximum temperature yesterday: 88 °F (at 11:00 AM)
Minimum temperature yesterday: 72 °F (at 1:00 AM)
Average temperature yesterday: 79 °F

Past Weeks' High & Low Weather Summary

 TemperatureHumidityPressure
High90 °F (Dec 5, 12:00 PM)100% (Dec 6, 12:00 AM)29.98 "Hg (Dec 6, 12:00 AM)
Low70 °F (Dec 19, 5:00 AM)55% (Dec 11, 12:00 PM)29.77 "Hg (Dec 5, 3:00 PM)
Average79 °F85%29.86 "Hg
* Reported Dec 4 8:00 PM — Dec 19 8:00 PM, Linden, Weather by CustomWeather, © 2014

Note: Actual official high and low records may vary slightly from our data, if they occured in-between our weather recording intervals... More about our weather records

Advertising

Linden weather history for previous 24 hours

 ConditionsComfort  
Time TempWeatherWind HumidityBarometerVisibility
8:00 PM
Dec 19
77 °FClear.7 mph89%29.86 "Hg10 mi
7:00 PM79 °FClear.7 mph84%29.86 "Hg10 mi
6:00 PM81 °FPassing clouds.9 mph79%29.83 "HgN/A
5:00 PM84 °FPartly sunny.9 mph70%29.83 "HgN/A
4:00 PM84 °FScattered clouds.12 mph66%29.80 "HgN/A
3:00 PM88 °FScattered clouds.14 mph59%29.80 "HgN/A
2:00 PM86 °FPartly sunny.7 mph66%29.83 "HgN/A
1:00 PM88 °FPartly sunny.14 mph59%29.86 "HgN/A
12:00 PM88 °FPartly sunny.12 mph55%29.89 "HgN/A
11:00 AM86 °FPartly sunny.7 mph62%29.89 "HgN/A
10:00 AM84 °FPartly sunny.5 mph66%29.92 "HgN/A
9:00 AM82 °FScattered clouds.7 mph74%29.92 "HgN/A
8:00 AM77 °FPassing clouds.5 mph94%29.92 "HgN/A
7:00 AM72 °FScattered clouds.5 mph94%29.89 "HgN/A
6:00 AM70 °FFog.5 mph100%29.86 "Hg1 mi
5:00 AM70 °FClear.5 mph94%29.86 "Hg10 mi
4:00 AM72 °FClear.No wind100%29.83 "Hg10 mi
3:00 AM72 °FClear.No wind100%29.83 "Hg10 mi
2:00 AM73 °FClear.5 mph100%29.83 "Hg10 mi
1:00 AM73 °FClear.No wind100%29.86 "Hg10 mi
11:00 PM
Dec 18
73 °FClear.5 mph100%29.89 "Hg10 mi
10:00 PM75 °FClear.5 mph94%29.89 "Hg10 mi
9:00 PM75 °FClear.5 mph94%29.89 "Hg10 mi
Weather by CustomWeather, © 2014

See weather overviewHow to use our weather pages